TimeEST,TemperatureF,Dew PointF,Humidity,Sea Level PressureIn,VisibilityMPH,Wind Direction,Wind SpeedMPH,Gust SpeedMPH,PrecipitationIn,Events,Conditions,WindDirDegrees,DateUTC
12:15 AM,16.7,7.3,67,30.25,10.0,SW,10.4,-,N/A,,Overcast,220,2013-02-02 05:15:00
12:35 AM,17.1,7.7,67,30.24,10.0,SSW,9.2,16.1,N/A,,Overcast,210,2013-02-02 05:35:00
12:55 AM,17.4,8.2,67,30.23,10.0,SSW,10.4,-,N/A,,Overcast,210,2013-02-02 05:55:00
1:15 AM,17.4,8.2,67,30.23,10.0,SSW,10.4,-,N/A,,Overcast,200,2013-02-02 06:15:00
1:35 AM,17.6,8.4,67,30.22,10.0,SSW,8.1,-,N/A,,Overcast,200,2013-02-02 06:35:00
1:55 AM,17.6,8.2,67,30.21,10.0,SSW,9.2,-,N/A,,Overcast,200,2013-02-02 06:55:00
2:15 AM,17.8,8.4,67,30.21,10.0,SSW,8.1,-,N/A,,Overcast,210,2013-02-02 07:15:00
2:35 AM,18.1,8.6,66,30.21,10.0,SSW,9.2,-,N/A,,Overcast,200,2013-02-02 07:35:00
2:55 AM,18.5,9.1,67,30.20,10.0,SSW,9.2,-,N/A,,Overcast,210,2013-02-02 07:55:00
3:15 AM,18.5,10.8,72,30.20,4.0,SSW,10.4,-,N/A,Snow,Light Snow,200,2013-02-02 08:15:00
3:35 AM,18.0,12.2,78,30.21,2.0,SSW,8.1,-,N/A,Snow,Light Snow,210,2013-02-02 08:35:00
4:15 AM,18.1,13.1,81,30.20,2.0,SSW,6.9,-,N/A,Snow,Light Snow,210,2013-02-02 09:15:00
4:35 AM,18.0,13.1,81,30.19,2.5,SSW,6.9,-,N/A,Snow,Light Snow,200,2013-02-02 09:35:00
4:55 AM,18.0,13.1,81,30.16,5.0,South,8.1,-,N/A,Snow,Light Snow,170,2013-02-02 09:55:00
5:15 AM,18.1,13.1,81,30.15,10.0,South,8.1,-,N/A,Snow,Light Snow,180,2013-02-02 10:15:00
5:35 AM,18.5,13.6,81,30.14,10.0,South,8.1,-,N/A,Snow,Light Snow,180,2013-02-02 10:35:00
5:55 AM,18.5,13.8,82,30.13,7.0,South,9.2,-,N/A,Snow,Light Snow,180,2013-02-02 10:55:00
6:15 AM,18.9,14.0,81,30.12,10.0,South,9.2,-,N/A,,Overcast,180,2013-02-02 11:15:00
6:35 AM,19.0,14.0,81,30.11,10.0,South,12.7,-,N/A,,Overcast,190,2013-02-02 11:35:00
7:15 AM,19.0,14.0,81,30.10,10.0,South,10.4,-,N/A,,Overcast,190,2013-02-02 12:15:00
7:35 AM,19.4,14.5,81,30.10,10.0,SSW,11.5,-,N/A,,Overcast,210,2013-02-02 12:35:00
7:55 AM,19.8,14.9,81,30.08,10.0,South,10.4,-,N/A,,Overcast,190,2013-02-02 12:55:00
8:15 AM,20.1,15.3,81,30.08,10.0,South,10.4,-,N/A,,Overcast,190,2013-02-02 13:15:00
8:35 AM,20.8,15.8,81,30.07,10.0,SSW,10.4,17.3,N/A,,Overcast,200,2013-02-02 13:35:00
8:55 AM,21.2,16.0,80,30.07,10.0,SSW,11.5,21.9,N/A,,Overcast,200,2013-02-02 13:55:00
9:15 AM,22.1,16.2,78,30.06,10.0,SSW,13.8,18.4,N/A,,Overcast,200,2013-02-02 14:15:00
9:35 AM,22.8,16.5,77,30.06,10.0,SSW,11.5,-,N/A,,Overcast,210,2013-02-02 14:35:00
9:55 AM,23.4,16.7,76,30.05,10.0,SSW,12.7,-,N/A,,Overcast,210,2013-02-02 14:55:00
10:15 AM,23.9,17.2,76,30.05,10.0,SW,13.8,18.4,N/A,,Overcast,220,2013-02-02 15:15:00
10:35 AM,24.4,18.0,76,30.04,5.0,SW,12.7,19.6,N/A,,Haze,220,2013-02-02 15:35:00
10:55 AM,25.0,18.3,76,30.04,5.0,SSW,12.7,-,N/A,,Haze,210,2013-02-02 15:55:00
11:15 AM,25.7,19.0,76,30.03,4.0,SW,15.0,-,N/A,Snow,Light Snow,220,2013-02-02 16:15:00
11:35 AM,25.9,19.4,76,30.03,7.0,SW,13.8,-,N/A,Snow,Light Snow,230,2013-02-02 16:35:00
11:55 AM,27.0,19.2,73,30.03,3.0,WSW,12.7,-,N/A,Snow,Light Snow,240,2013-02-02 16:55:00
12:15 PM,26.6,19.6,75,30.01,3.0,WSW,11.5,-,N/A,Snow,Light Snow,240,2013-02-02 17:15:00
12:35 PM,26.6,19.4,74,30.00,10.0,WSW,12.7,-,N/A,,Overcast,240,2013-02-02 17:35:00
12:55 PM,26.6,19.4,74,29.99,10.0,WSW,15.0,-,N/A,,Overcast,240,2013-02-02 17:55:00
1:15 PM,27.1,19.8,74,29.98,10.0,WSW,12.7,17.3,N/A,,Overcast,250,2013-02-02 18:15:00
1:35 PM,27.1,19.9,74,29.98,10.0,West,12.7,19.6,N/A,,Overcast,260,2013-02-02 18:35:00
1:55 PM,27.3,20.5,75,29.98,10.0,West,13.8,-,N/A,,Overcast,260,2013-02-02 18:55:00
2:15 PM,27.3,20.7,76,29.98,10.0,West,11.5,18.4,N/A,,Overcast,260,2013-02-02 19:15:00
2:35 PM,27.3,20.5,75,29.97,10.0,West,13.8,19.6,N/A,,Overcast,260,2013-02-02 19:35:00
2:55 PM,27.5,20.8,76,29.98,10.0,West,13.8,-,N/A,,Overcast,270,2013-02-02 19:55:00
3:15 PM,27.5,21.0,77,29.98,10.0,West,12.7,18.4,N/A,,Overcast,270,2013-02-02 20:15:00
3:35 PM,27.5,20.8,76,29.98,10.0,West,15.0,-,N/A,,Overcast,270,2013-02-02 20:35:00
3:55 PM,27.5,20.8,76,29.98,10.0,West,8.1,-,N/A,,Overcast,280,2013-02-02 20:55:00
4:15 PM,27.5,21.0,77,29.99,10.0,West,10.4,16.1,N/A,,Overcast,280,2013-02-02 21:15:00
4:35 PM,27.5,21.6,78,29.99,7.0,West,10.4,-,N/A,,Overcast,280,2013-02-02 21:35:00
4:55 PM,27.3,21.9,80,29.99,5.0,WNW,5.8,-,N/A,,Haze,290,2013-02-02 21:55:00
5:15 PM,27.3,22.1,81,30.00,5.0,West,9.2,-,N/A,Snow,Light Snow,280,2013-02-02 22:15:00
5:35 PM,27.1,22.1,81,30.00,5.0,West,9.2,-,N/A,Snow,Light Snow,270,2013-02-02 22:35:00
5:55 PM,27.0,22.1,82,30.00,4.0,West,8.1,-,N/A,Snow,Light Snow,280,2013-02-02 22:55:00
6:15 PM,26.6,22.1,83,30.01,5.0,WNW,8.1,-,N/A,Snow,Light Snow,290,2013-02-02 23:15:00
6:35 PM,26.6,21.9,82,30.01,7.0,WNW,8.1,-,N/A,,Overcast,290,2013-02-02 23:35:00
6:55 PM,26.6,21.2,80,30.01,10.0,WNW,6.9,-,N/A,,Overcast,290,2013-02-02 23:55:00
7:15 PM,26.6,21.2,80,30.01,10.0,West,6.9,-,N/A,,Overcast,280,2013-02-03 00:15:00
7:35 PM,26.4,21.0,80,30.01,10.0,WNW,9.2,-,N/A,,Overcast,290,2013-02-03 00:35:00
7:55 PM,26.2,20.8,80,30.02,10.0,WNW,9.2,-,N/A,,Overcast,290,2013-02-03 00:55:00
8:15 PM,26.2,21.0,81,30.02,10.0,WNW,9.2,-,N/A,,Overcast,290,2013-02-03 01:15:00
8:35 PM,25.2,19.9,81,30.03,10.0,WNW,10.4,-,N/A,,Overcast,290,2013-02-03 01:35:00
8:55 PM,24.1,18.9,80,30.03,10.0,WNW,11.5,-,N/A,,Overcast,290,2013-02-03 01:55:00
9:15 PM,23.4,17.8,79,30.04,10.0,WNW,11.5,-,N/A,,Overcast,290,2013-02-03 02:15:00
9:35 PM,22.8,17.4,80,30.04,10.0,WNW,10.4,16.1,N/A,,Overcast,290,2013-02-03 02:35:00
9:55 PM,21.7,16.9,82,30.04,7.0,WNW,10.4,16.1,N/A,Snow,Light Snow,290,2013-02-03 02:55:00
10:15 PM,21.2,16.5,82,30.04,7.0,West,9.2,-,N/A,Snow,Light Snow,280,2013-02-03 03:15:00
10:35 PM,19.4,14.2,80,30.04,7.0,WNW,9.2,18.4,N/A,Snow,Light Snow,290,2013-02-03 03:35:00
10:55 PM,18.0,12.7,80,30.04,7.0,WNW,9.2,-,N/A,Snow,Light Snow,290,2013-02-03 03:55:00
11:15 PM,16.9,11.3,79,30.04,10.0,West,12.7,-,N/A,Snow,Light Snow,280,2013-02-03 04:15:00
11:35 PM,16.7,11.1,79,30.04,10.0,West,9.2,-,N/A,Snow,Light Snow,280,2013-02-03 04:35:00
11:55 PM,16.3,10.4,77,30.04,10.0,West,9.2,-,N/A,,Overcast,280,2013-02-03 04:55:00